Flag for Belgium Weather past 2 weeks in Bruges, Belgium

Now
57 °F

Broken clouds.


Feels Like: 53 °F
Forecast: 52 / 63 °F
Wind: 20 mph from Southwest

Location: Oostende Airport

Current Time: Jul 8, 2015 at 9:23:32 AM

Latest Report: Jul 8, 2015 at 8:50 AM


Visibility: N/A

Pressure: 29.80 "Hg

Humidity: 88%

Dew point: 54 °F

Location of BrugesLocation

Historic Weather in Bruges — Graph

°F

Bruges temperature yesterday

Maximum temperature yesterday: 70 °F (at 12:50 PM)
Minimum temperature yesterday: 54 °F (at 5:50 AM)
Average temperature yesterday: 63 °F

Past Weeks' High & Low Weather Summary

 TemperatureHumidityPressure
High93 °F (Jul 1, 2:50 PM)100% (Jun 30, 4:50 AM)30.30 "Hg (Jun 30, 4:50 AM)
Low46 °F (Jun 24, 4:20 AM)32% (Jul 1, 2:50 PM)29.77 "Hg (Jul 7, 6:50 PM)
Average64 °F76%30.09 "Hg
* Reported Jun 23 7:20 AM — Jul 8 7:50 AM, Bruges, Weather by CustomWeather, © 2015

Note: Actual official high and low records may vary slightly from our data, if they occured in-between our weather recording intervals... More about our weather records

Advertising

Bruges weather history for previous 24 hours

 ConditionsComfort  
Time TempWeatherWind HumidityBarometerVisibility
7:50 AM
Wed, Jul 8
57 °FSprinkles. Scattered clouds.17 mph88%29.80 "HgN/A
7:20 AM57 °FPassing clouds.16 mph88%29.80 "HgN/A
6:50 AM57 °FPassing clouds.15 mph88%29.80 "HgN/A
6:20 AM57 °FLight rain. Passing clouds.13 mph88%29.80 "HgN/A
5:50 AM57 °FPassing clouds.13 mph88%29.80 "HgN/A
5:20 AM55 °FPassing clouds.12 mph94%29.80 "HgN/A
4:50 AM55 °FPassing clouds.13 mph94%29.80 "HgN/A
4:20 AM55 °FPassing clouds.13 mph94%29.80 "HgN/A
3:50 AM57 °FPassing clouds.13 mph88%29.80 "HgN/A
3:20 AM57 °FPassing clouds.13 mph88%29.80 "HgN/A
2:50 AM57 °FPassing clouds.14 mph88%29.80 "HgN/A
2:20 AM57 °FPassing clouds.16 mph88%29.80 "HgN/A
1:50 AM59 °FPassing clouds.18 mph82%29.80 "HgN/A
1:20 AM59 °FPassing clouds.17 mph82%29.80 "HgN/A
12:50 AM59 °FPassing clouds.18 mph82%29.80 "HgN/A
12:20 AM59 °FPassing clouds.17 mph82%29.80 "HgN/A
11:20 PM
Tue, Jul 7
57 °FClear.15 mph82%29.80 "Hg10 mi
10:50 PM57 °FSunny.16 mph82%29.80 "Hg10 mi
10:20 PM59 °FPassing clouds.17 mph77%29.77 "HgN/A
9:50 PM61 °FPassing clouds.21 mph68%29.77 "HgN/A
9:20 PM64 °FSunny.23 mph68%29.77 "Hg10 mi
8:50 PM64 °FSunny.21 mph64%29.77 "Hg10 mi
8:20 PM66 °FSunny.18 mph64%29.77 "Hg10 mi
7:50 PM68 °FPassing clouds.20 mph60%29.77 "HgN/A
7:20 PM68 °FPassing clouds.21 mph60%29.77 "HgN/A
6:50 PM70 °FPassing clouds.20 mph60%29.77 "HgN/A
6:20 PM68 °FPassing clouds.23 mph60%29.80 "HgN/A
5:50 PM70 °FScattered clouds.20 mph64%29.80 "HgN/A
5:20 PM68 °FScattered clouds.17 mph69%29.80 "HgN/A
4:50 PM70 °FScattered clouds.20 mph69%29.80 "HgN/A
4:20 PM66 °FScattered clouds.17 mph78%29.83 "HgN/A
3:50 PM66 °FScattered clouds.16 mph78%29.80 "HgN/A
3:20 PM66 °FPartly sunny.23 mph83%29.83 "HgN/A
2:50 PM68 °FScattered clouds.22 mph78%29.83 "HgN/A
2:20 PM68 °FPassing clouds.20 mph78%29.83 "HgN/A
1:50 PM70 °FPassing clouds.18 mph69%29.83 "HgN/A
1:20 PM70 °FPassing clouds.17 mph69%29.83 "HgN/A
12:50 PM70 °FSunny.10 mph73%29.83 "Hg10 mi
12:20 PM68 °FPassing clouds.8 mph73%29.83 "HgN/A
11:50 AM68 °FPassing clouds.7 mph78%29.83 "HgN/A
11:20 AM68 °FPassing clouds.8 mph78%29.83 "HgN/A
10:50 AM68 °FPassing clouds.6 mph73%29.83 "HgN/A
10:20 AM68 °FPassing clouds.7 mph73%29.86 "HgN/A
9:50 AM66 °FPassing clouds.7 mph78%29.86 "HgN/A
9:20 AM64 °FPassing clouds.8 mph78%29.86 "HgN/A
Weather by CustomWeather, © 2015

See weather overviewHow to use our weather pages